TimePDT,TemperatureF,Dew PointF,Humidity,Sea Level PressureIn,VisibilityMPH,Wind Direction,Wind SpeedMPH,Gust SpeedMPH,PrecipitationIn,Events,Conditions,WindDirDegrees,DateUTC
12:53 AM,39.9,32.0,73,29.91,10.0,South,4.6,-,N/A,,Mostly Cloudy,170,2014-04-23 07:53:00
1:53 AM,39.0,33.1,79,29.91,10.0,SSE,6.9,-,N/A,,Overcast,160,2014-04-23 08:53:00
2:53 AM,41.0,33.1,73,29.90,10.0,South,8.1,-,N/A,,Overcast,170,2014-04-23 09:53:00
3:53 AM,44.1,32.0,63,29.89,10.0,SSW,9.2,-,N/A,,Overcast,210,2014-04-23 10:53:00
4:53 AM,46.0,30.9,56,29.88,10.0,SSW,9.2,-,N/A,,Overcast,210,2014-04-23 11:53:00
5:53 AM,46.0,30.9,56,29.89,10.0,SSW,10.4,-,N/A,,Overcast,210,2014-04-23 12:53:00
6:53 AM,46.0,30.9,56,29.91,10.0,SW,10.4,-,N/A,,Overcast,230,2014-04-23 13:53:00
7:53 AM,46.0,33.1,61,29.93,10.0,WNW,6.9,-,0.00,Rain,Light Rain,290,2014-04-23 14:53:00
8:53 AM,48.0,32.0,54,29.92,10.0,West,6.9,-,0.00,,Scattered Clouds,270,2014-04-23 15:53:00
9:53 AM,53.6,33.8,47,29.92,10.0,WSW,17.3,24.2,N/A,,Partly Cloudy,250,2014-04-23 16:53:00
10:53 AM,51.1,35.1,54,29.93,10.0,WSW,21.9,26.5,0.00,Rain,Light Rain,250,2014-04-23 17:53:00
11:53 AM,52.0,34.0,50,29.94,10.0,SW,12.7,-,0.00,,Overcast,220,2014-04-23 18:53:00
12:53 PM,50.0,37.4,62,29.92,10.0,West,5.8,-,N/A,Rain,Light Rain,260,2014-04-23 19:53:00
1:53 PM,54.0,37.0,53,29.90,10.0,Variable,6.9,-,0.00,,Mostly Cloudy,0,2014-04-23 20:53:00
2:53 PM,55.9,37.0,49,29.89,10.0,SSW,13.8,-,N/A,,Mostly Cloudy,210,2014-04-23 21:53:00
3:53 PM,57.0,39.0,51,29.88,10.0,WSW,15.0,23.0,0.00,Rain,Light Rain,250,2014-04-23 22:53:00
4:53 PM,57.0,37.9,49,29.86,10.0,SW,11.5,-,0.00,,Partly Cloudy,220,2014-04-23 23:53:00
5:39 PM,54.0,41.0,62,29.86,10.0,SSE,11.5,-,N/A,,Clear,150,2014-04-24 00:39:00
5:53 PM,54.0,41.0,62,29.84,10.0,SE,10.4,-,N/A,,Scattered Clouds,140,2014-04-24 00:53:00
6:53 PM,55.0,37.9,53,29.83,10.0,SSE,5.8,-,N/A,,Overcast,160,2014-04-24 01:53:00
7:53 PM,53.1,41.0,64,29.81,10.0,West,4.6,-,0.00,,Overcast,280,2014-04-24 02:53:00
8:53 PM,52.0,42.1,69,29.82,10.0,SE,5.8,-,N/A,,Overcast,130,2014-04-24 03:53:00
9:53 PM,50.0,44.1,80,29.82,7.0,Calm,Calm,-,0.01,Rain,Light Rain,0,2014-04-24 04:53:00
10:53 PM,48.9,44.1,83,29.81,8.0,ESE,4.6,-,0.03,Rain,Light Rain,110,2014-04-24 05:53:00
11:53 PM,50.0,42.1,74,29.79,10.0,SSW,11.5,-,0.03,Rain,Light Rain,200,2014-04-24 06:53:00